This is the latest recevied weather packets stored in our database for station/object OH2TH. If no packets are shown the sender has not sent any weather packets the latest 10 day(s).
| Time | Temp. | Humidity | Pressure | Rain* | Wind** | Luminosity | Snow |
|---|---|---|---|---|---|---|---|
| 1777908602 | 12.22° C | 76% | 100 hPa | 232.92 mm | - | - | - |
| 1777907702 | 12.22° C | 76% | 100 hPa | 232.92 mm | - | - | - |
| 1777906802 | 12.22° C | 75% | 100 hPa | 232.92 mm | - | - | - |
| 1777905902 | 12.78° C | 74% | 100 hPa | 232.92 mm | - | - | - |
| 1777905001 | 12.22° C | 73% | 100 hPa | 232.92 mm | - | - | - |
| 1777904101 | 12.22° C | 74% | 100 hPa | 232.92 mm | - | - | - |
| 1777903201 | 12.22° C | 77% | 100 hPa | 232.92 mm | - | - | - |
| 1777902301 | 11.11° C | 79% | 100 hPa | 232.92 mm | - | - | - |
| 1777901400 | 11.11° C | 81% | 100 hPa | 232.92 mm | - | - | - |
| 1777900500 | 10° C | 84% | 100 hPa | 232.92 mm | - | - | - |
| 1777899605 | 10° C | 86% | 100 hPa | 232.92 mm | - | - | - |
| 1777898705 | 10° C | 85% | 100 hPa | 218.44 mm | - | - | - |
| 1777897804 | 9.44° C | 88% | 100 hPa | 218.44 mm | - | - | - |
| 1777896904 | 9.44° C | 87% | 100 hPa | 218.44 mm | - | - | - |
| 1777896004 | 9.44° C | 88% | 100 hPa | 218.44 mm | - | - | - |
| 1777895104 | 9.44° C | 90% | 100 hPa | 238.25 mm | - | - | - |
| 1777894203 | 8.89° C | 87% | 100 hPa | 240.28 mm | - | - | - |
| 1777893303 | 8.89° C | 89% | 100 hPa | 231.9 mm | - | - | - |
| 1777892402 | 8.89° C | 89% | 100 hPa | 139.95 mm | - | - | - |
| 1777891502 | 8.89° C | 90% | 100 hPa | 124.21 mm | - | - | - |
| 1777890601 | 10° C | 87% | 100 hPa | 111 mm | - | - | - |
| 1777889700 | 10° C | 83% | 100 hPa | 108.2 mm | - | - | - |
| 1777888805 | 10° C | 79% | 100 hPa | 63.5 mm | - | - | - |
| 1777887905 | 10° C | 80% | 100 hPa | 61.21 mm | - | - | - |
| 1777887004 | 10.56° C | 74% | 100 hPa | 56.13 mm | - | - | - |
* Rain latest 24 hours (hover to see other rain measurements)
** Current wind speed in m/s (hover to see current wind gust speed)